COSMOS 2426 (717)

Last updated on June 24, 2019, 3:41 a.m. UTC

1 29671U 06062B   19174.57830111 -.00000028  00000-0  10000-3 0  9992
2 29671  65.1208 280.0775 0018563 164.1760 282.7618  2.13102960 97235
UTC
Height (km)
Latitude
Longitude
Inclination
Orbital Period
UTC large
Height (km)
Speed (km/s)
/
Latitude / Longitude
Inclination (degrees)
Orbital Period (minutes)
Azimuth
Elevation
Range (km)
Doppler Factor
iOS Compass Heading
iOS Angle

Next 30 passes for location: Hong Kong

Rise time Rise Azimuth (degrees) Set time Set Azimuth (degrees) Duration Max altitude (degrees)

No matching passes for this satellites